Flag for Germany Weather past 2 weeks in Erlangen, Bavaria, Germany

Now
66 °F

Partly sunny.


Feels Like: 66 °F
Forecast: 51 / 69 °F
Wind: 2 mph from North

Location: Nuernberg

Current Time: Sep 30, 2014 at 5:19:00 PM

Latest Report: Sep 30, 2014 at 4:50 PM


Visibility: N/A

Pressure: 30.27 "Hg

Humidity: 78%

Dew point: 59 °F

Location of ErlangenLocation

Historic Weather in Erlangen — Graph

°F

Erlangen temperature yesterday

Maximum temperature yesterday: 75 °F (at 3:20 PM)
Minimum temperature yesterday: 46 °F (at 6:50 AM)
Average temperature yesterday: 60 °F

Past Weeks' High & Low Weather Summary

 TemperatureHumidityPressure
High75 °F (Sep 18, 2:50 PM)100% (Sep 15, 11:20 PM)30.39 "Hg (Sep 15, 11:20 PM)
Low36 °F (Sep 24, 5:20 AM)44% (Sep 29, 4:50 PM)29.89 "Hg (Sep 17, 5:50 PM)
Average58 °F85%30.09 "Hg
* Reported Sep 15 4:20 PM — Sep 30 4:20 PM, Erlangen, Weather by CustomWeather, © 2014

Note: Actual official high and low records may vary slightly from our data, if they occured in-between our weather recording intervals... More about our weather records

Advertising

Erlangen weather history for previous 24 hours

 ConditionsComfort  
Time TempWeatherWind HumidityBarometerVisibility
4:20 PM
Sep 30
66 °FPartly sunny.2 mph78%30.27 "HgN/A
3:50 PM66 °FPartly sunny.7 mph78%30.27 "HgN/A
3:20 PM66 °FPartly sunny.6 mph78%30.27 "HgN/A
2:50 PM66 °FBroken clouds.6 mph78%30.27 "HgN/A
2:20 PM66 °FPartly sunny.6 mph73%30.27 "HgN/A
1:50 PM68 °FPartly sunny.8 mph73%30.27 "HgN/A
1:20 PM68 °FPartly sunny.6 mph73%30.27 "HgN/A
12:50 PM66 °FPartly sunny.7 mph78%30.30 "HgN/A
12:20 PM66 °FPartly sunny.5 mph73%30.30 "HgN/A
11:50 AM64 °FPassing clouds.6 mph78%30.30 "HgN/A
11:20 AM64 °FSunny.2 mph83%30.30 "Hg10 mi
10:50 AM64 °FSunny.2 mph83%30.30 "Hg10 mi
10:20 AM63 °FSunny.2 mph83%30.27 "Hg10 mi
9:50 AM61 °FSunny.2 mph88%30.27 "Hg10 mi
9:20 AM61 °FSunny.3 mph88%30.27 "Hg10 mi
8:50 AM59 °FSunny.2 mph94%30.27 "Hg10 mi
8:20 AM59 °FPassing clouds.3 mph94%30.27 "HgN/A
7:50 AM59 °FClear.3 mph94%30.27 "Hg10 mi
7:20 AM59 °FClear.2 mph94%30.27 "Hg10 mi
6:50 AM59 °FPassing clouds.3 mph88%30.27 "HgN/A
6:20 AM57 °FClear.3 mph100%30.27 "Hg10 mi
5:50 AM59 °FPassing clouds.3 mph88%30.27 "HgN/A
5:20 AM59 °FClear.2 mph94%30.27 "Hg10 mi
4:50 AM59 °FClear.3 mph88%30.27 "Hg10 mi
4:20 AM59 °FClear.2 mph88%30.27 "Hg10 mi
3:50 AM59 °FClear.3 mph94%30.27 "Hg10 mi
3:20 AM59 °FClear.3 mph94%30.27 "Hg10 mi
2:50 AM57 °FClear.3 mph94%30.27 "Hg10 mi
2:20 AM57 °FFog.5 mph94%30.27 "HgN/A
1:50 AM57 °FFog.5 mph94%30.27 "HgN/A
1:20 AM57 °FFog.3 mph94%30.27 "HgN/A
12:50 AM57 °FFog.3 mph100%30.27 "HgN/A
12:20 AM57 °FFog.5 mph94%30.27 "HgN/A
11:50 PM
Sep 29
57 °FFog.5 mph94%30.27 "HgN/A
11:20 PM57 °FFog.5 mph94%30.27 "HgN/A
10:50 PM57 °FFog.6 mph94%30.27 "HgN/A
10:20 PM59 °FFog.5 mph88%30.27 "HgN/A
9:50 PM59 °FFog.2 mph94%30.27 "HgN/A
9:20 PM61 °FClear.5 mph88%30.27 "Hg10 mi
8:50 PM63 °FClear.3 mph83%30.24 "Hg10 mi
8:20 PM63 °FClear.1 mph77%30.24 "Hg10 mi
7:50 PM64 °FSunny.1 mph78%30.24 "Hg10 mi
7:20 PM66 °FSunny.1 mph73%30.24 "Hg10 mi
6:50 PM68 °FSunny.1 mph69%30.24 "Hg10 mi
6:20 PM70 °FSunny.2 mph64%30.24 "Hg10 mi
5:50 PM73 °FSunny.1 mph53%30.24 "Hg10 mi
5:20 PM75 °FSunny.2 mph47%30.24 "Hg10 mi
Weather by CustomWeather, © 2014

See weather overviewHow to use our weather pages